QPF
0.08 0.06 0.05 0.06 0.06 0.06 0.04 0.04 0.03 0.03 0.03 0.03 0.03 0.03 0.03 0.03 0.03 0.02 0.02 0.04 0.05 0.05 0.06 0.06 0.08 0.07 0.07 0.06 0.05 0.05 0.05 0.05 0.04 0.04 0.04 0.06 0.07 0.05 0.04 0.04 0.04 0.04 0.05
0.04 0.03 0.03 0.03 0.03 0.03 0.03 0.03 0.02 0.03 0.03 0.04 0.04 0.04 0.04 0.03 0.03 0.02 0.02 0.03 0.04 0.05 0.07 0.08 0.09 0.09 0.09 0.07 0.07 0.06 0.06 0.06 0.08 0.08 0.09 0.09 0.06 0.04 0.05 0.05 0.04 0.05 0.05
0.02 0.02 0.02 0.02 0.01 0.01 0.02 0.03 0.02 0.03 0.03 0.03 0.04 0.04 0.03 0.02 0.02 0.02 0.02 0.02 0.03 0.04 0.05 0.07 0.08 0.10 0.12 0.13 0.12 0.08 0.07 0.08 0.09 0.12 0.13 0.09 0.07 0.07 0.07 0.06 0.05 0.05 0.04
0.02 0.02 0.02 0.02 0.01 0.01 0.02 0.02 0.02 0.01 0.02 0.02 0.02 0.02 0.01 0.01 0.01 0.02 0.02 0.03 0.03 0.03 0.04 0.05 0.07 0.09 0.11 0.11 0.11 0.10 0.09 0.09 0.09 0.12 0.10 0.10 0.10 0.08 0.07 0.07 0.05 0.04 0.04
0.02 0.02 0.02 0.02 0.02 0.02 0.02 0.01 0.01 0.01 0.01 0.01 0.01 0.01 0.02 0.01 0.01 0.02 0.02 0.03 0.03 0.03 0.03 0.04 0.06 0.07 0.08 0.08 0.10 0.11 0.12 0.11 0.10 0.08 0.07 0.07 0.07 0.07 0.07 0.07 0.06 0.05 0.04
0.01 0.01 0.01 0.01 0.01 0.02 0.02 0.02 0.01 0.02 0.02 0.02 0.02 0.02 0.02 0.02 0.02 0.02 0.02 0.02 0.02 0.03 0.03 0.04 0.04 0.05 0.07 0.07 0.08 0.11 0.11 0.13 0.15 0.14 0.10 0.08 0.07 0.07 0.06 0.06 0.06 0.06 0.05
0.01 0.01 0.00 0.01 0.01 0.01 0.01 0.01 0.01 0.02 0.03 0.03 0.03 0.02 0.02 0.02 0.02 0.02 0.02 0.02 0.03 0.04 0.05 0.06 0.07 0.06 0.05 0.04 0.05 0.08 0.12 0.13 0.15 0.15 0.13 0.11 0.12 0.13 0.12 0.11 0.10 0.09 0.08
0.02 0.02 0.02 0.01 0.01 0.01 0.01 0.01 0.01 0.02 0.02 0.03 0.05 0.04 0.03 0.02 0.02 0.03 0.03 0.04 0.04 0.04 0.04 0.05 0.06 0.06 0.07 0.05 0.04 0.05 0.07 0.10 0.14 0.17 0.15 0.13 0.11 0.12 0.14 0.16 0.16 0.13 0.11
0.02 0.02 0.02 0.03 0.03 0.02 0.01 0.01 0.02 0.03 0.03 0.04 0.05 0.04 0.03 0.01 0.01 0.03 0.03 0.03 0.04 0.04 0.03 0.03 0.03 0.03 0.04 0.04 0.04 0.03 0.05 0.08 0.15 0.24 0.26 0.22 0.15 0.14 0.15 0.16 0.16 0.15 0.12
0.01 0.01 0.01 0.03 0.02 0.02 0.02 0.02 0.03 0.04 0.05 0.05 0.04 0.04 0.03 0.02 0.02 0.03 0.03 0.03 0.03 0.03 0.03 0.03 0.03 0.03 0.03 0.02 0.03 0.04 0.05 0.05 0.07 0.12 0.16 0.20 0.17 0.12 0.10 0.10 0.12 0.12 0.11
0.01 0.01 0.02 0.02 0.02 0.02 0.01 0.02 0.02 0.03 0.04 0.03 0.02 0.02 0.03 0.03 0.02 0.03 0.03 0.04 0.04 0.03 0.03 0.03 0.04 0.04 0.04 0.03 0.02 0.03 0.04 0.04 0.03 0.04 0.05 0.08 0.15 0.18 0.16 0.12 0.11 0.11 0.10
0.01 0.01 0.02 0.01 0.01 0.02 0.02 0.02 0.02 0.02 0.02 0.03 0.03 0.03 0.03 0.02 0.03 0.04 0.03 0.03 0.04 0.06 0.05 0.04 0.04 0.04 0.04 0.03 0.03 0.03 0.03 0.03 0.03 0.02 0.03 0.04 0.06 0.09 0.15 0.19 0.16 0.12 0.10
0.02 0.02 0.01 0.02 0.02 0.02 0.01 0.01 0.01 0.02 0.02 0.02 0.02 0.03 0.04 0.03 0.04 0.05 0.04 0.02 0.03 0.03 0.04 0.02 0.02 0.02 0.03 0.03 0.03 0.03 0.03 0.03 0.04 0.03 0.03 0.03 0.03 0.04 0.05 0.09 0.15 0.14 0.09
0.03 0.03 0.02 0.03 0.03 0.03 0.02 0.02 0.02 0.01 0.02 0.03 0.04 0.05 0.05 0.05 0.06 0.05 0.05 0.03 0.02 0.01 0.02 0.02 0.03 0.03 0.03 0.03 0.03 0.05 0.03 0.03 0.03 0.04 0.04 0.04 0.04 0.04 0.04 0.05 0.07 0.10 0.09
0.03 0.02 0.02 0.03 0.03 0.03 0.04 0.04 0.03 0.03 0.03 0.04 0.06 0.06 0.05 0.05 0.05 0.05 0.05 0.05 0.04 0.03 0.01 0.01 0.01 0.03 0.05 0.03 0.02 0.03 0.03 0.03 0.03 0.03 0.04 0.05 0.05 0.04 0.04 0.03 0.05 0.07 0.07
0.03 0.03 0.04 0.03 0.04 0.05 0.05 0.05 0.05 0.04 0.04 0.04 0.05 0.05 0.04 0.04 0.03 0.04 0.06 0.07 0.07 0.05 0.02 0.01 0.01 0.02 0.02 0.02 0.02 0.02 0.02 0.04 0.04 0.04 0.05 0.05 0.06 0.06 0.05 0.03 0.03 0.04 0.04
0.05 0.06 0.08 0.09 0.08 0.06 0.06 0.05 0.05 0.04 0.03 0.03 0.04 0.04 0.04 0.03 0.04 0.06 0.09 0.07 0.04 0.03 0.02 0.01 0.01 0.01 0.01 0.02 0.02 0.01 0.01 0.02 0.03 0.03 0.03 0.04 0.04 0.03 0.04 0.05 0.05 0.04 0.04
0.09 0.11 0.15 0.14 0.09 0.05 0.05 0.05 0.05 0.04 0.03 0.03 0.03 0.04 0.04 0.04 0.04 0.06 0.06 0.04 0.02 0.03 0.02 0.01 0.00 0.01 0.01 0.01 0.02 0.02 0.02 0.02 0.02 0.02 0.02 0.03 0.04 0.04 0.03 0.05 0.08 0.09 0.07
0.08 0.07 0.07 0.05 0.04 0.03 0.03 0.04 0.04 0.04 0.03 0.03 0.03 0.02 0.02 0.02 0.02 0.03 0.02 0.02 0.02 0.02 0.02 0.01 0.01 0.01 0.01 0.01 0.01 0.02 0.02 0.02 0.02 0.02 0.02 0.03 0.04 0.05 0.05 0.05 0.07 0.10 0.12
0.05 0.04 0.03 0.02 0.02 0.02 0.02 0.03 0.03 0.03 0.02 0.02 0.01 0.01 0.01 0.01 0.01 0.01 0.01 0.01 0.01 0.01 0.02 0.02 0.01 0.01 0.01 0.01 0.01 0.01 0.01 0.02 0.02 0.02 0.02 0.02 0.03 0.04 0.04 0.05 0.06 0.07 0.10
0.06 0.04 0.02 0.02 0.02 0.02 0.02 0.02 0.02 0.02 0.02 0.01 0.01 0.01 0.01 0.01 0.01 0.01 0.01 0.01 0.01 0.01 0.01 0.01 0.01 0.01 0.01 0.01 0.01 0.02 0.02 0.02 0.02 0.02 0.02 0.02 0.03 0.03 0.04 0.04 0.04 0.06 0.07
0.06 0.04 0.04 0.03 0.03 0.03 0.04 0.03 0.02 0.02 0.01 0.01 0.01 0.01 0.02 0.02 0.02 0.01 0.01 0.01 0.01 0.01 0.01 0.01 0.01 0.01 0.01 0.01 0.01 0.02 0.02 0.02 0.01 0.01 0.02 0.02 0.03 0.03 0.03 0.03 0.03 0.04 0.05
0.04 0.05 0.04 0.04 0.04 0.05 0.06 0.06 0.05 0.03 0.02 0.01 0.01 0.03 0.05 0.04 0.03 0.02 0.01 0.01 0.01 0.01 0.02 0.02 0.01 0.01 0.01 0.01 0.01 0.01 0.01 0.02 0.01 0.01 0.01 0.01 0.02 0.02 0.03 0.03 0.04 0.04 0.05
0.05 0.05 0.05 0.05 0.04 0.04 0.06 0.09 0.09 0.06 0.03 0.03 0.03 0.04 0.05 0.06 0.05 0.04 0.03 0.01 0.01 0.01 0.02 0.02 0.01 0.02 0.02 0.01 0.01 0.01 0.01 0.02 0.01 0.01 0.01 0.01 0.01 0.01 0.02 0.02 0.03 0.04 0.05
0.02 0.04 0.04 0.03 0.03 0.04 0.05 0.07 0.08 0.05 0.03 0.02 0.02 0.02 0.02 0.04 0.05 0.05 0.03 0.01 0.00 0.01 0.02 0.02 0.01 0.01 0.01 0.01 0.01 0.01 0.02 0.01 0.01 0.01 0.01 0.02 0.03 0.04 0.04 0.03 0.03 0.04 0.06
0.04 0.03 0.02 0.02 0.02 0.03 0.03 0.04 0.05 0.04 0.02 0.01 0.01 0.01 0.02 0.02 0.03 0.03 0.01 0.01 0.01 0.01 0.01 0.01 0.01 0.02 0.02 0.02 0.01 0.01 0.02 0.02 0.01 0.02 0.03 0.05 0.05 0.06 0.05 0.04 0.04 0.04 0.04
MSLP
1013.34 1013.45 1013.57 1013.71 1013.87 1014.06 1014.28 1014.52 1014.74 1014.92 1015.05 1015.10 1015.10 1015.05 1015.00 1014.96 1014.98 1015.08 1015.26 1015.50 1015.80 1016.12 1016.44 1016.75 1017.03 1017.29 1017.53 1017.77 1018.01 1018.25 1018.49 1018.72 1018.93 1019.11 1019.26 1019.38 1019.49 1019.60 1019.71 1019.86 1020.03 1020.25 1020.49
1014.00 1014.08 1014.17 1014.27 1014.39 1014.54 1014.72 1014.90 1015.08 1015.24 1015.35 1015.40 1015.40 1015.36 1015.30 1015.25 1015.25 1015.30 1015.43 1015.61 1015.85 1016.11 1016.39 1016.66 1016.92 1017.17 1017.42 1017.67 1017.92 1018.18 1018.44 1018.69 1018.92 1019.13 1019.29 1019.44 1019.56 1019.67 1019.78 1019.92 1020.09 1020.29 1020.52
1014.44 1014.51 1014.58 1014.65 1014.75 1014.86 1015.00 1015.15 1015.30 1015.44 1015.54 1015.61 1015.63 1015.61 1015.58 1015.55 1015.55 1015.58 1015.65 1015.77 1015.93 1016.12 1016.32 1016.53 1016.74 1016.95 1017.18 1017.42 1017.67 1017.94 1018.21 1018.48 1018.74 1018.97 1019.17 1019.34 1019.49 1019.62 1019.76 1019.91 1020.08 1020.29 1020.53
1014.72 1014.77 1014.83 1014.89 1014.96 1015.05 1015.15 1015.27 1015.40 1015.52 1015.63 1015.71 1015.77 1015.80 1015.82 1015.83 1015.84 1015.87 1015.92 1015.98 1016.07 1016.16 1016.27 1016.39 1016.52 1016.67 1016.84 1017.04 1017.27 1017.52 1017.80 1018.08 1018.35 1018.61 1018.84 1019.06 1019.24 1019.42 1019.60 1019.78 1019.98 1020.20 1020.46
1014.89 1014.93 1014.97 1015.02 1015.08 1015.14 1015.22 1015.30 1015.40 1015.50 1015.60 1015.71 1015.80 1015.90 1015.98 1016.05 1016.12 1016.17 1016.21 1016.24 1016.26 1016.28 1016.29 1016.31 1016.34 1016.39 1016.48 1016.61 1016.79 1017.00 1017.24 1017.51 1017.79 1018.06 1018.33 1018.58 1018.82 1019.04 1019.27 1019.49 1019.73 1019.98 1020.26
1015.05 1015.06 1015.09 1015.12 1015.16 1015.20 1015.24 1015.29 1015.34 1015.42 1015.51 1015.62 1015.76 1015.91 1016.07 1016.22 1016.35 1016.46 1016.53 1016.56 1016.55 1016.50 1016.43 1016.35 1016.28 1016.23 1016.22 1016.25 1016.33 1016.47 1016.66 1016.88 1017.14 1017.41 1017.69 1017.97 1018.24 1018.52 1018.78 1019.04 1019.32 1019.60 1019.90
1015.25 1015.24 1015.25 1015.27 1015.29 1015.30 1015.30 1015.30 1015.30 1015.33 1015.40 1015.50 1015.66 1015.86 1016.09 1016.33 1016.55 1016.74 1016.87 1016.93 1016.92 1016.85 1016.73 1016.58 1016.42 1016.26 1016.14 1016.06 1016.04 1016.08 1016.18 1016.33 1016.53 1016.78 1017.04 1017.32 1017.61 1017.91 1018.20 1018.49 1018.79 1019.09 1019.41
1015.55 1015.51 1015.50 1015.51 1015.50 1015.49 1015.45 1015.40 1015.34 1015.31 1015.33 1015.41 1015.57 1015.80 1016.09 1016.41 1016.73 1017.01 1017.23 1017.36 1017.40 1017.34 1017.21 1017.01 1016.79 1016.55 1016.32 1016.14 1016.00 1015.93 1015.92 1015.98 1016.11 1016.29 1016.51 1016.77 1017.04 1017.33 1017.62 1017.91 1018.21 1018.52 1018.83
1015.95 1015.89 1015.87 1015.86 1015.85 1015.81 1015.73 1015.62 1015.51 1015.41 1015.36 1015.40 1015.54 1015.78 1016.11 1016.49 1016.89 1017.27 1017.59 1017.81 1017.93 1017.93 1017.83 1017.64 1017.39 1017.10 1016.81 1016.53 1016.29 1016.11 1016.00 1015.95 1015.98 1016.07 1016.23 1016.43 1016.66 1016.90 1017.16 1017.43 1017.69 1017.97 1018.26
1016.43 1016.37 1016.34 1016.33 1016.31 1016.25 1016.15 1015.99 1015.82 1015.65 1015.54 1015.52 1015.62 1015.84 1016.17 1016.59 1017.06 1017.52 1017.93 1018.26 1018.47 1018.56 1018.53 1018.39 1018.16 1017.87 1017.54 1017.21 1016.90 1016.63 1016.41 1016.27 1016.20 1016.20 1016.27 1016.40 1016.56 1016.74 1016.94 1017.15 1017.36 1017.58 1017.81
1016.94 1016.89 1016.87 1016.87 1016.85 1016.79 1016.67 1016.49 1016.27 1016.04 1015.87 1015.78 1015.82 1016.00 1016.31 1016.73 1017.23 1017.75 1018.24 1018.66 1018.97 1019.16 1019.23 1019.17 1019.00 1018.74 1018.43 1018.08 1017.74 1017.41 1017.13 1016.91 1016.76 1016.68 1016.66 1016.71 1016.79 1016.90 1017.02 1017.15 1017.29 1017.43 1017.59
1017.43 1017.39 1017.40 1017.41 1017.41 1017.36 1017.24 1017.05 1016.81 1016.54 1016.31 1016.16 1016.14 1016.26 1016.52 1016.92 1017.41 1017.96 1018.50 1018.99 1019.39 1019.68 1019.84 1019.88 1019.80 1019.62 1019.36 1019.04 1018.70 1018.36 1018.05 1017.78 1017.57 1017.43 1017.36 1017.33 1017.34 1017.38 1017.43 1017.48 1017.53 1017.59 1017.67
1017.85 1017.84 1017.87 1017.91 1017.94 1017.92 1017.82 1017.64 1017.39 1017.11 1016.84 1016.65 1016.56 1016.62 1016.82 1017.17 1017.63 1018.16 1018.71 1019.23 1019.70 1020.07 1020.33 1020.47 1020.49 1020.40 1020.22 1019.96 1019.67 1019.35 1019.05 1018.77 1018.55 1018.37 1018.26 1018.19 1018.15 1018.13 1018.12 1018.10 1018.08 1018.07 1018.07
1018.20 1018.21 1018.26 1018.34 1018.40 1018.40 1018.34 1018.19 1017.97 1017.70 1017.42 1017.20 1017.07 1017.07 1017.21 1017.49 1017.89 1018.37 1018.90 1019.43 1019.92 1020.35 1020.68 1020.91 1021.02 1021.03 1020.94 1020.77 1020.54 1020.28 1020.02 1019.77 1019.56 1019.39 1019.26 1019.17 1019.11 1019.06 1019.01 1018.95 1018.88 1018.81 1018.75
1018.47 1018.51 1018.58 1018.68 1018.77 1018.82 1018.80 1018.69 1018.51 1018.28 1018.03 1017.80 1017.65 1017.61 1017.69 1017.90 1018.23 1018.64 1019.12 1019.62 1020.11 1020.55 1020.92 1021.21 1021.41 1021.50 1021.50 1021.42 1021.28 1021.09 1020.89 1020.69 1020.52 1020.37 1020.26 1020.18 1020.12 1020.07 1020.00 1019.92 1019.83 1019.73 1019.63
1018.72 1018.77 1018.85 1018.97 1019.08 1019.17 1019.19 1019.15 1019.02 1018.84 1018.64 1018.44 1018.29 1018.23 1018.27 1018.41 1018.67 1019.01 1019.42 1019.86 1020.31 1020.74 1021.13 1021.45 1021.70 1021.86 1021.93 1021.93 1021.87 1021.76 1021.63 1021.49 1021.36 1021.26 1021.19 1021.13 1021.09 1021.05 1021.00 1020.92 1020.83 1020.72 1020.60
1018.98 1019.03 1019.12 1019.24 1019.38 1019.49 1019.56 1019.57 1019.51 1019.39 1019.25 1019.10 1018.98 1018.92 1018.93 1019.04 1019.23 1019.50 1019.83 1020.21 1020.60 1020.99 1021.36 1021.69 1021.96 1022.16 1022.29 1022.36 1022.36 1022.31 1022.24 1022.16 1022.08 1022.03 1021.99 1021.96 1021.95 1021.93 1021.90 1021.85 1021.77 1021.67 1021.57
1019.28 1019.33 1019.43 1019.55 1019.70 1019.83 1019.93 1019.99 1019.99 1019.94 1019.86 1019.77 1019.70 1019.66 1019.67 1019.75 1019.89 1020.10 1020.36 1020.67 1021.00 1021.34 1021.67 1021.98 1022.25 1022.48 1022.64 1022.74 1022.79 1022.79 1022.77 1022.73 1022.69 1022.67 1022.66 1022.66 1022.68 1022.68 1022.68 1022.65 1022.59 1022.52 1022.43
1019.61 1019.68 1019.78 1019.92 1020.06 1020.21 1020.34 1020.43 1020.48 1020.49 1020.48 1020.45 1020.42 1020.42 1020.44 1020.51 1020.63 1020.79 1020.99 1021.23 1021.50 1021.78 1022.07 1022.35 1022.61 1022.83 1023.00 1023.12 1023.20 1023.23 1023.24 1023.23 1023.21 1023.21 1023.22 1023.24 1023.27 1023.29 1023.30 1023.30 1023.27 1023.22 1023.16
1019.97 1020.07 1020.19 1020.33 1020.48 1020.64 1020.78 1020.89 1020.98 1021.04 1021.07 1021.10 1021.12 1021.15 1021.20 1021.28 1021.37 1021.50 1021.66 1021.84 1022.06 1022.29 1022.53 1022.78 1023.01 1023.21 1023.39 1023.52 1023.60 1023.65 1023.67 1023.67 1023.66 1023.67 1023.68 1023.71 1023.74 1023.77 1023.80 1023.80 1023.80 1023.77 1023.73
1020.32 1020.46 1020.61 1020.77 1020.93 1021.09 1021.23 1021.36 1021.47 1021.55 1021.63 1021.70 1021.76 1021.83 1021.91 1021.99 1022.08 1022.19 1022.31 1022.45 1022.62 1022.80 1023.00 1023.21 1023.41 1023.60 1023.76 1023.89 1023.98 1024.03 1024.05 1024.06 1024.05 1024.05 1024.07 1024.09 1024.12 1024.15 1024.18 1024.20 1024.20 1024.19 1024.16
1020.63 1020.83 1021.02 1021.20 1021.37 1021.53 1021.68 1021.80 1021.92 1022.02 1022.12 1022.22 1022.32 1022.42 1022.52 1022.61 1022.70 1022.79 1022.88 1022.99 1023.12 1023.26 1023.43 1023.60 1023.78 1023.95 1024.10 1024.22 1024.31 1024.36 1024.38 1024.38 1024.38 1024.37 1024.38 1024.39 1024.42 1024.45 1024.48 1024.50 1024.51 1024.51 1024.49
1020.88 1021.14 1021.38 1021.59 1021.78 1021.94 1022.07 1022.20 1022.31 1022.42 1022.54 1022.66 1022.79 1022.91 1023.02 1023.12 1023.21 1023.29 1023.36 1023.44 1023.53 1023.64 1023.77 1023.92 1024.07 1024.23 1024.37 1024.48 1024.56 1024.61 1024.63 1024.63 1024.62 1024.61 1024.61 1024.62 1024.65 1024.68 1024.72 1024.74 1024.76 1024.76 1024.74
1021.06 1021.39 1021.68 1021.92 1022.11 1022.27 1022.40 1022.52 1022.64 1022.75 1022.88 1023.02 1023.16 1023.30 1023.43 1023.54 1023.63 1023.70 1023.75 1023.80 1023.86 1023.94 1024.04 1024.15 1024.29 1024.42 1024.55 1024.65 1024.73 1024.77 1024.79 1024.79 1024.78 1024.77 1024.77 1024.79 1024.81 1024.85 1024.89 1024.92 1024.94 1024.95 1024.94
1021.18 1021.57 1021.90 1022.16 1022.37 1022.53 1022.66 1022.78 1022.89 1023.02 1023.16 1023.32 1023.48 1023.64 1023.78 1023.90 1023.99 1024.04 1024.08 1024.10 1024.13 1024.18 1024.24 1024.34 1024.45 1024.56 1024.68 1024.77 1024.84 1024.88 1024.89 1024.89 1024.87 1024.86 1024.86 1024.88 1024.91 1024.96 1025.01 1025.05 1025.08 1025.09 1025.08
1021.26 1021.70 1022.06 1022.35 1022.56 1022.73 1022.86 1022.97 1023.09 1023.24 1023.40 1023.58 1023.77 1023.95 1024.11 1024.23 1024.32 1024.36 1024.38 1024.38 1024.38 1024.40 1024.44 1024.50 1024.59 1024.69 1024.79 1024.88 1024.93 1024.96 1024.97 1024.95 1024.93 1024.91 1024.91 1024.92 1024.96 1025.01 1025.06 1025.11 1025.15 1025.16 1025.16
Thickness
5778 5778 5777 5776 5775 5773 5772 5770 5769 5768 5767 5766 5766 5765 5764 5763 5762 5761 5760 5759 5758 5757 5755 5753 5751 5750 5749 5747 5745 5743 5741 5739 5737 5735 5733 5730 5728 5726 5725 5723 5722 5721 5720
5778 5777 5776 5774 5773 5772 5771 5769 5768 5766 5766 5765 5764 5763 5763 5762 5761 5760 5759 5758 5757 5755 5754 5752 5751 5750 5749 5747 5745 5743 5741 5739 5737 5735 5732 5730 5728 5725 5724 5722 5721 5721 5720
5778 5777 5775 5773 5772 5771 5770 5768 5767 5765 5764 5763 5762 5762 5761 5761 5760 5759 5758 5756 5755 5754 5753 5752 5750 5749 5748 5747 5746 5743 5741 5739 5737 5735 5732 5730 5727 5725 5723 5721 5720 5719 5719
5778 5776 5774 5773 5772 5771 5769 5767 5765 5763 5762 5761 5760 5760 5759 5759 5758 5758 5757 5755 5754 5753 5752 5751 5750 5748 5748 5747 5746 5744 5742 5740 5737 5735 5732 5729 5727 5725 5723 5721 5720 5718 5718
5777 5776 5773 5772 5771 5770 5768 5767 5764 5762 5760 5759 5758 5758 5758 5757 5757 5757 5755 5754 5753 5752 5751 5750 5749 5748 5747 5746 5745 5744 5742 5740 5737 5735 5732 5730 5727 5725 5723 5721 5719 5718 5717
5775 5774 5772 5771 5770 5768 5766 5765 5763 5761 5759 5758 5758 5757 5756 5756 5755 5755 5754 5753 5752 5751 5750 5748 5747 5747 5746 5745 5744 5742 5741 5739 5736 5734 5732 5730 5727 5725 5723 5721 5719 5717 5716
5774 5772 5771 5769 5768 5766 5765 5764 5762 5759 5757 5757 5754 5752 5753 5754 5754 5753 5753 5752 5751 5750 5749 5748 5746 5745 5744 5743 5742 5741 5739 5737 5736 5733 5731 5729 5727 5724 5722 5721 5719 5718 5716
5773 5772 5770 5768 5767 5765 5763 5762 5760 5758 5757 5756 5753 5747 5744 5746 5750 5752 5751 5750 5749 5748 5748 5747 5745 5743 5742 5741 5740 5739 5738 5736 5735 5733 5731 5728 5726 5724 5722 5721 5720 5717 5716
5771 5770 5768 5767 5766 5764 5762 5760 5759 5757 5754 5754 5753 5748 5741 5737 5741 5746 5747 5747 5747 5746 5746 5745 5744 5742 5740 5739 5738 5737 5735 5734 5733 5731 5729 5727 5725 5723 5721 5719 5717 5716 5714
5769 5768 5767 5766 5764 5763 5761 5760 5759 5757 5754 5750 5750 5750 5748 5745 5739 5737 5742 5744 5744 5744 5743 5743 5741 5740 5738 5737 5735 5734 5732 5731 5730 5728 5726 5724 5722 5721 5719 5716 5715 5713 5713
5766 5766 5765 5764 5763 5761 5760 5759 5757 5756 5754 5751 5748 5747 5745 5743 5741 5736 5734 5737 5739 5740 5740 5739 5738 5737 5736 5734 5732 5731 5729 5728 5726 5725 5723 5721 5719 5718 5716 5714 5712 5711 5711
5763 5763 5763 5762 5761 5759 5758 5757 5756 5754 5753 5750 5748 5746 5744 5741 5738 5736 5732 5731 5732 5734 5736 5736 5735 5733 5732 5731 5729 5728 5726 5724 5722 5721 5719 5718 5716 5715 5713 5711 5710 5709 5708
5759 5759 5759 5759 5758 5757 5756 5755 5753 5752 5750 5748 5746 5744 5743 5742 5740 5737 5732 5729 5728 5730 5731 5732 5731 5729 5728 5727 5725 5724 5722 5720 5719 5717 5715 5713 5712 5711 5710 5709 5707 5706 5705
5757 5757 5757 5756 5755 5754 5753 5752 5750 5749 5747 5745 5744 5742 5740 5739 5738 5736 5732 5728 5724 5723 5724 5725 5726 5725 5723 5722 5721 5719 5717 5716 5714 5713 5712 5710 5709 5707 5706 5705 5704 5703 5702
5755 5755 5754 5752 5751 5750 5749 5747 5746 5744 5743 5741 5740 5738 5736 5736 5735 5733 5731 5728 5722 5717 5717 5719 5719 5720 5719 5718 5716 5715 5713 5712 5710 5709 5708 5707 5705 5704 5703 5701 5700 5699 5697
5751 5750 5749 5748 5746 5745 5744 5742 5740 5739 5738 5736 5735 5733 5731 5730 5729 5727 5725 5723 5721 5717 5713 5716 5715 5715 5714 5714 5712 5710 5709 5707 5706 5705 5704 5703 5701 5700 5699 5698 5696 5694 5693
5747 5745 5744 5743 5741 5740 5739 5737 5735 5733 5731 5730 5728 5727 5725 5724 5722 5721 5719 5717 5715 5713 5709 5710 5710 5709 5708 5707 5706 5705 5704 5702 5702 5701 5700 5698 5697 5696 5695 5693 5691 5690 5688
5742 5741 5740 5738 5737 5735 5734 5732 5730 5728 5725 5723 5722 5720 5719 5718 5716 5714 5712 5711 5709 5707 5704 5702 5703 5702 5701 5701 5700 5699 5698 5697 5696 5696 5694 5693 5692 5691 5690 5688 5686 5684 5683
5737 5735 5734 5732 5731 5730 5728 5727 5725 5722 5720 5718 5716 5714 5713 5711 5709 5708 5706 5704 5703 5702 5699 5697 5695 5694 5694 5693 5693 5692 5691 5690 5690 5690 5689 5688 5686 5685 5684 5682 5680 5679 5677
5731 5729 5728 5727 5726 5724 5723 5721 5719 5716 5714 5713 5711 5709 5707 5705 5703 5702 5701 5698 5697 5695 5693 5691 5689 5687 5686 5686 5685 5684 5683 5683 5682 5683 5682 5681 5680 5679 5678 5676 5675 5673 5672
5725 5723 5722 5721 5719 5718 5716 5714 5712 5710 5707 5705 5704 5703 5702 5701 5699 5698 5696 5693 5691 5689 5686 5684 5682 5680 5679 5678 5677 5676 5675 5675 5675 5675 5674 5674 5673 5672 5671 5670 5669 5668 5666
5717 5716 5714 5714 5712 5711 5709 5707 5705 5703 5701 5699 5697 5696 5696 5694 5693 5692 5690 5689 5687 5684 5681 5678 5675 5674 5672 5671 5670 5669 5667 5667 5667 5667 5666 5666 5666 5665 5665 5664 5663 5662 5660
5711 5708 5707 5706 5704 5704 5702 5700 5698 5695 5693 5692 5690 5689 5689 5688 5686 5685 5683 5682 5681 5679 5677 5674 5671 5669 5667 5666 5664 5662 5660 5660 5660 5660 5658 5660 5659 5658 5658 5658 5657 5656 5654
5704 5702 5700 5698 5697 5696 5695 5693 5690 5687 5686 5685 5684 5682 5681 5680 5680 5678 5676 5674 5673 5672 5670 5668 5667 5665 5664 5662 5659 5657 5655 5653 5653 5652 5651 5652 5652 5652 5652 5651 5650 5649 5648
5698 5696 5694 5692 5690 5689 5688 5686 5683 5680 5678 5677 5677 5676 5675 5673 5673 5671 5669 5666 5665 5664 5663 5661 5660 5659 5657 5655 5653 5650 5648 5647 5647 5647 5645 5644 5645 5645 5644 5644 5643 5642 5641
5692 5689 5687 5685 5683 5681 5680 5678 5676 5673 5671 5670 5669 5668 5668 5666 5665 5663 5661 5659 5657 5656 5655 5654 5652 5651 5649 5647 5646 5644 5642 5640 5639 5639 5638 5636 5636 5635 5637 5636 5635 5633 5632